Location: Pittman
(37.9557°N, 80.9209°W)
Time: 14:37:40
(UTC+00:00)

Envisat - Pass Details

Date: 22 April 2026
Orbit: 761 x 762 km, 98.4° (Epoch: 15 May)

Event Time Altitude Azimuth Distance (km) Brightness Sun altitude
Rises 08:34:17 0° 5° (N) 3,230 6.9 -22.6°
Reaches altitude 10° 08:36:41 10° 358° (N) 2,300 5.9 -22.3°
Maximum altitude 08:41:26 42° 289° (WNW) 1,077 3.5 -21.5°
Enters shadow 08:41:56 41° 273° (W) 1,099 3.4 -21.4°
